Flag for Bahrain Weather past 2 weeks in Manama, Bahrain

Now
64 °F

Clear.


Feels Like: 64 °F
Forecast: 66 / 73 °F
Wind: 2 mph from North

Location: Bahrain International Airport

Current Time: Dec 29, 2014 at 2:43:53 AM

Latest Report: Dec 29, 2014 at 2:00 AM


Visibility: 10 mi

Pressure: 30.04 "Hg

Humidity: 73%

Dew point: 55 °F

Location of ManamaLocation

Historic Weather in Manama — Graph

°F

Manama temperature yesterday

Maximum temperature yesterday: 73 °F (at 1:00 PM)
Minimum temperature yesterday: 61 °F (at 4:00 AM)
Average temperature yesterday: 67 °F

Past Weeks' High & Low Weather Summary

 TemperatureHumidityPressure
High79 °F (Dec 15, 1:00 PM)88% (Dec 14, 1:00 AM)30.30 "Hg (Dec 14, 1:00 AM)
Low59 °F (Dec 20, 6:00 AM)23% (Dec 28, 4:00 PM)29.89 "Hg (Dec 21, 3:00 PM)
Average68 °F60%30.12 "Hg
* Reported Dec 14 1:00 AM — Dec 29 1:00 AM, Manama, Weather by CustomWeather, © 2014

Note: Actual official high and low records may vary slightly from our data, if they occured in-between our weather recording intervals... More about our weather records

Advertising

Manama weather history for previous 24 hours

 ConditionsComfort  
Time TempWeatherWind HumidityBarometerVisibility
1:00 AM
Dec 29
64 °FClear.1 mph64%30.04 "Hg10 mi
12:00 AM66 °FClear.No wind64%30.04 "Hg10 mi
11:00 PM
Dec 28
68 °FPassing clouds.3 mph64%30.07 "HgN/A
10:00 PM68 °FClear.3 mph60%30.07 "Hg10 mi
9:00 PM68 °FPassing clouds.3 mph64%30.07 "HgN/A
8:00 PM68 °FClear.2 mph56%30.09 "Hg10 mi
7:00 PM68 °FClear.5 mph46%30.07 "Hg10 mi
6:00 PM70 °FClear.2 mph31%30.07 "Hg10 mi
5:00 PM72 °FClear.5 mph33%30.04 "Hg10 mi
4:00 PM73 °FPassing clouds.5 mph23%30.04 "HgN/A
3:00 PM73 °FSunny.5 mph27%30.04 "HgN/A
2:00 PM73 °FPassing clouds.5 mph27%30.07 "HgN/A
1:00 PM73 °FPassing clouds.7 mph27%30.07 "HgN/A
12:00 PM72 °FSunny.8 mph33%30.09 "Hg10 mi
11:00 AM72 °FSunny.6 mph44%30.12 "Hg10 mi
10:00 AM68 °FSunny.7 mph53%30.15 "Hg5 mi
9:00 AM66 °FSunny.5 mph60%30.15 "Hg5 mi
8:00 AM64 °FSunny.3 mph68%30.15 "Hg3 mi
7:00 AM63 °FFog.2 mph77%30.12 "Hg1 mi
6:00 AM61 °FClear.1 mph77%30.09 "Hg3 mi
5:00 AM63 °FClear.2 mph73%30.09 "Hg4 mi
4:00 AM61 °FClear.2 mph77%30.09 "Hg4 mi
3:00 AM63 °FClear.2 mph73%30.09 "Hg4 mi
2:00 AM63 °FClear.3 mph73%30.09 "Hg4 mi
Weather by CustomWeather, © 2014

See weather overviewHow to use our weather pages